Location: Cerbedi�res
(48.2182°N, 1.4849°W)
Time: 17:39:06
(UTC+00:00)

CSL-04 Debris - Pass Details

Date: 03 March 2021
Orbit: 826 x 848 km, 98.9° (Epoch: 19 April)

Event Time Altitude Azimuth Distance (km) Brightness Sun altitude
Rises 18:24:08 0° 143° (SE) 3,375 7.0 -5.9°
Reaches altitude 10° 18:26:33 10° 138° (SE) 2,448 6.2 -6.3°
Maximum altitude 18:31:42 46° 67° (ENE) 1,126 4.5 -7.2°
Drops below altitude 10° 18:36:54 10° 356° (N) 2,477 6.7 -8.0°
Sets 18:39:22 0° 350° (N) 3,419 7.5 -8.4°
